BAW18B TXKF-EGLL

Flight info

Callsign BAW18B
Flight time 5h 54m
Altitude 33000
Route BORNN1 BALOO DCT 3530N06000W 40N050W 43N040W 46N030W 49N020W DCT BEDRA DCT NASBA DCT GAPLI/N0497F330 DCT SIDDI DCT DAWLY DCT ELRIP DCT OTMET
Aircraft B77W/H-SDE1E2E3FGHIJ2J3J4J5M1RWXY/LB1D1

Departure

Time 2026-04-16 06:43
Airport L.F. Wade International Airport (TXKF)

Arrival

Time 2026-04-16 12:38
Airport London Heathrow Airport (EGLL)
Time Latitude Longitude Altitude Speed Heading
2026-04-16 06:24 32.36224 -64.70276 44 ft 0 kts 247°
2026-04-16 06:38 32.36223 -64.70277 44 ft 0 kts 247°
2026-04-16 06:39 32.36223 -64.70278 33 ft 1 kts 249°
2026-04-16 06:39 32.36235 -64.70297 31 ft 4 kts 331°
2026-04-16 06:39 32.36278 -64.70229 33 ft 13 kts 102°
2026-04-16 06:39 32.36279 -64.70123 33 ft 13 kts 69°
2026-04-16 06:40 32.36316 -64.70018 33 ft 14 kts 66°
2026-04-16 06:40 32.36355 -64.69913 33 ft 14 kts 67°
2026-04-16 06:40 32.36392 -64.69807 33 ft 14 kts 68°
2026-04-16 06:40 32.36428 -64.69703 33 ft 14 kts 66°
2026-04-16 06:41 32.36466 -64.69597 33 ft 14 kts 67°
2026-04-16 06:41 32.36503 -64.69492 31 ft 13 kts 67°
2026-04-16 06:41 32.36563 -64.69415 30 ft 14 kts 21°
2026-04-16 06:41 32.36638 -64.69395 30 ft 7 kts 11°
2026-04-16 06:42 32.36664 -64.69377 27 ft 2 kts 65°
2026-04-16 06:42 32.36661 -64.69359 28 ft 3 kts 103°
2026-04-16 06:42 32.36624 -64.69150 25 ft 66 kts 101°
2026-04-16 06:42 32.36468 -64.68239 28 ft 159 kts 101°
2026-04-16 06:43 32.36199 -64.66669 374 ft 210 kts 100°
2026-04-16 06:43 32.35921 -64.65069 1852 ft 197 kts 100°
2026-04-16 06:43 32.35638 -64.63479 2737 ft 199 kts 101°
2026-04-16 06:43 32.35355 -64.61848 3157 ft 205 kts 102°
2026-04-16 06:44 32.35059 -64.60116 3372 ft 225 kts 102°
2026-04-16 06:44 32.34745 -64.58216 3596 ft 246 kts 98°
2026-04-16 06:44 32.34954 -64.56158 3859 ft 264 kts 62°
2026-04-16 06:44 32.36136 -64.54461 4344 ft 273 kts 43°
2026-04-16 06:45 32.37535 -64.52936 4960 ft 281 kts 43°
2026-04-16 06:45 32.38977 -64.51357 5717 ft 283 kts 43°
2026-04-16 06:45 32.40413 -64.49774 6561 ft 282 kts 43°
2026-04-16 06:45 32.41854 -64.48173 7277 ft 285 kts 43°
2026-04-16 06:46 32.43304 -64.46551 7967 ft 289 kts 43°
2026-04-16 06:46 32.44767 -64.44904 8662 ft 292 kts 43°
2026-04-16 06:46 32.46242 -64.43235 9367 ft 295 kts 43°
2026-04-16 06:46 32.47729 -64.41546 10073 ft 298 kts 43°
2026-04-16 06:47 32.49254 -64.39809 10499 ft 312 kts 43°
2026-04-16 06:47 32.50874 -64.37961 10677 ft 335 kts 43°
2026-04-16 06:47 32.52605 -64.35983 10855 ft 357 kts 43°
2026-04-16 06:47 32.54449 -64.33873 11083 ft 377 kts 43°
2026-04-16 06:48 32.56357 -64.31686 11624 ft 386 kts 44°
2026-04-16 06:48 32.58304 -64.29452 12256 ft 393 kts 44°
2026-04-16 06:48 32.60247 -64.27222 12997 ft 395 kts 44°
2026-04-16 06:48 32.62233 -64.24940 13757 ft 398 kts 44°
2026-04-16 06:49 32.64236 -64.22636 14417 ft 403 kts 43°
2026-04-16 06:49 32.66258 -64.20310 15096 ft 406 kts 43°
2026-04-16 06:49 32.68289 -64.17973 15791 ft 408 kts 43°
2026-04-16 06:49 32.70331 -64.15621 16489 ft 411 kts 43°
2026-04-16 06:50 32.72391 -64.13247 17142 ft 415 kts 43°
2026-04-16 06:50 32.74468 -64.10852 17792 ft 418 kts 42°
2026-04-16 06:50 32.76564 -64.08433 18449 ft 421 kts 42°
2026-04-16 06:50 32.78666 -64.06005 19028 ft 424 kts 42°
2026-04-16 06:51 32.80763 -64.03582 19600 ft 427 kts 42°
2026-04-16 06:51 32.82902 -64.01107 20177 ft 430 kts 42°
2026-04-16 06:51 32.85051 -63.98620 20740 ft 433 kts 42°
2026-04-16 06:51 32.87213 -63.96115 21289 ft 436 kts 42°
2026-04-16 06:52 32.89395 -63.93588 21835 ft 439 kts 42°
2026-04-16 06:52 32.91588 -63.91045 22342 ft 442 kts 42°
2026-04-16 06:52 32.93802 -63.88476 22844 ft 445 kts 42°
2026-04-16 06:52 32.96030 -63.85888 23367 ft 448 kts 42°
2026-04-16 06:53 32.98273 -63.83281 23854 ft 451 kts 42°
2026-04-16 06:53 33.00525 -63.80660 24269 ft 454 kts 42°
2026-04-16 06:53 33.02793 -63.78019 24705 ft 456 kts 42°
2026-04-16 06:53 33.05069 -63.75366 25130 ft 458 kts 43°
2026-04-16 06:54 33.07353 -63.72701 25552 ft 461 kts 43°
2026-04-16 06:54 33.09626 -63.70047 25977 ft 463 kts 43°
2026-04-16 06:54 33.11932 -63.67353 26381 ft 465 kts 43°
2026-04-16 06:54 33.14255 -63.64637 26769 ft 468 kts 43°
2026-04-16 06:55 33.16587 -63.61908 27149 ft 471 kts 43°
2026-04-16 06:55 33.18926 -63.59169 27523 ft 473 kts 43°
2026-04-16 06:55 33.21279 -63.56411 27901 ft 475 kts 43°
2026-04-16 06:55 33.23648 -63.53633 28246 ft 478 kts 43°
2026-04-16 06:56 33.26027 -63.50840 28604 ft 480 kts 43°
2026-04-16 06:56 33.28412 -63.48038 28941 ft 482 kts 43°
2026-04-16 06:56 33.30811 -63.45217 29254 ft 484 kts 43°
2026-04-16 06:56 33.33098 -63.42525 29548 ft 486 kts 43°
2026-04-16 06:57 33.35410 -63.39802 29873 ft 487 kts 43°
2026-04-16 06:57 33.37797 -63.36989 30301 ft 486 kts 43°
2026-04-16 06:57 33.40197 -63.34157 30717 ft 484 kts 43°
2026-04-16 06:57 33.42589 -63.31332 31129 ft 481 kts 43°
2026-04-16 06:58 33.44976 -63.28512 31487 ft 480 kts 43°
2026-04-16 06:58 33.47343 -63.25713 31851 ft 479 kts 43°
2026-04-16 06:58 33.49712 -63.22910 32210 ft 477 kts 43°
2026-04-16 06:58 33.52072 -63.20115 32561 ft 476 kts 43°
2026-04-16 06:59 33.54391 -63.17366 32883 ft 474 kts 43°
2026-04-16 06:59 33.56744 -63.14574 33161 ft 475 kts 43°
2026-04-16 06:59 33.61483 -63.08950 33231 ft 483 kts 43°
2026-04-16 07:00 33.66308 -63.03211 33246 ft 491 kts 43°
2026-04-16 07:01 33.73321 -62.94849 33243 ft 497 kts 43°
2026-04-16 07:01 33.78231 -62.88983 33237 ft 497 kts 43°
2026-04-16 07:02 33.83134 -62.83114 33231 ft 497 kts 43°
2026-04-16 07:02 33.88012 -62.77266 33230 ft 497 kts 43°
2026-04-16 07:03 33.92908 -62.71388 33229 ft 496 kts 43°
2026-04-16 07:03 33.97791 -62.65514 33234 ft 495 kts 43°
2026-04-16 07:04 34.02673 -62.59632 33235 ft 495 kts 43°
2026-04-16 07:04 34.07513 -62.53791 33234 ft 495 kts 43°
2026-04-16 07:05 34.12247 -62.48068 33237 ft 496 kts 43°
2026-04-16 07:05 34.16963 -62.42355 33235 ft 497 kts 43°
2026-04-16 07:06 34.21844 -62.36434 33234 ft 498 kts 44°
2026-04-16 07:06 34.26740 -62.30484 33238 ft 499 kts 44°
2026-04-16 07:07 34.31635 -62.24523 33236 ft 500 kts 44°
2026-04-16 07:07 34.36509 -62.18579 33232 ft 500 kts 44°
2026-04-16 07:08 34.41339 -62.12504 33223 ft 501 kts 51°
2026-04-16 07:08 34.45202 -62.05469 33238 ft 503 kts 58°
2026-04-16 07:09 34.48802 -61.98199 33246 ft 503 kts 58°
2026-04-16 07:09 34.52479 -61.90952 33238 ft 504 kts 57°
2026-04-16 07:10 34.56225 -61.83766 33235 ft 504 kts 57°
2026-04-16 07:10 34.59969 -61.76628 33241 ft 504 kts 57°
2026-04-16 07:11 34.63733 -61.69435 33242 ft 504 kts 57°
2026-04-16 07:11 34.67484 -61.62242 33243 ft 504 kts 57°
2026-04-16 07:12 34.71234 -61.55027 33234 ft 504 kts 58°
2026-04-16 07:12 34.74980 -61.47807 33241 ft 504 kts 58°
2026-04-16 07:13 34.78723 -61.40579 33244 ft 504 kts 58°
2026-04-16 07:13 34.82435 -61.33396 33249 ft 504 kts 58°
2026-04-16 07:14 34.86167 -61.26161 33241 ft 504 kts 58°
2026-04-16 07:14 34.89887 -61.18932 33241 ft 503 kts 58°
2026-04-16 07:15 34.93592 -61.11718 33243 ft 502 kts 58°
2026-04-16 07:15 34.97295 -61.04493 33244 ft 502 kts 58°
2026-04-16 07:16 35.00989 -60.97271 33239 ft 501 kts 59°
2026-04-16 07:16 35.04670 -60.90059 33245 ft 500 kts 59°
2026-04-16 07:17 35.08323 -60.82889 33242 ft 500 kts 59°
2026-04-16 07:17 35.11934 -60.75784 33252 ft 500 kts 59°
2026-04-16 07:18 35.15599 -60.68560 33240 ft 501 kts 59°
2026-04-16 07:18 35.19271 -60.61307 33248 ft 502 kts 59°
2026-04-16 07:19 35.22941 -60.54042 33247 ft 503 kts 59°
2026-04-16 07:19 35.26614 -60.46756 33248 ft 504 kts 59°
2026-04-16 07:20 35.30296 -60.39438 33241 ft 504 kts 59°
2026-04-16 07:20 35.33972 -60.32115 33248 ft 505 kts 59°
2026-04-16 07:21 35.37630 -60.24813 33247 ft 506 kts 59°
2026-04-16 07:21 35.41315 -60.17442 33248 ft 507 kts 59°
2026-04-16 07:22 35.44990 -60.10072 33246 ft 507 kts 58°
2026-04-16 07:22 35.48674 -60.02673 33250 ft 509 kts 58°
2026-04-16 07:23 35.52406 -59.95271 33244 ft 510 kts 57°
2026-04-16 07:23 35.56216 -59.87981 33254 ft 510 kts 56°
2026-04-16 07:24 35.60060 -59.80646 33244 ft 510 kts 57°
2026-04-16 07:24 35.63875 -59.73310 33244 ft 509 kts 57°
2026-04-16 07:25 35.67674 -59.65965 33247 ft 509 kts 57°
2026-04-16 07:25 35.70829 -59.59845 33253 ft 509 kts 57°
2026-04-16 07:26 35.75230 -59.51294 33248 ft 508 kts 57°
2026-04-16 07:26 35.78393 -59.45138 33247 ft 508 kts 57°
2026-04-16 07:27 35.82151 -59.37810 33245 ft 508 kts 57°
2026-04-16 07:27 35.85885 -59.30513 33243 ft 508 kts 57°
2026-04-16 07:28 35.89623 -59.23192 33250 ft 508 kts 57°
2026-04-16 07:28 35.93379 -59.15820 33243 ft 507 kts 57°
2026-04-16 07:29 35.97136 -59.08430 33245 ft 507 kts 57°
2026-04-16 07:29 36.00862 -59.01087 33247 ft 508 kts 56°
2026-04-16 07:30 36.04609 -58.93685 33250 ft 509 kts 56°
2026-04-16 07:30 36.08358 -58.86263 33242 ft 509 kts 56°
2026-04-16 07:31 36.12103 -58.78833 33248 ft 509 kts 56°
2026-04-16 07:31 36.15853 -58.71378 33240 ft 511 kts 56°
2026-04-16 07:32 36.19613 -58.63885 33249 ft 513 kts 56°
2026-04-16 07:32 36.23386 -58.56351 33245 ft 515 kts 56°
2026-04-16 07:33 36.27157 -58.48803 33241 ft 516 kts 56°
2026-04-16 07:33 36.30880 -58.41333 33244 ft 515 kts 56°
2026-04-16 07:34 36.34630 -58.33793 33232 ft 512 kts 56°
2026-04-16 07:34 36.38309 -58.26380 33234 ft 510 kts 56°
2026-04-16 07:35 36.42033 -58.18862 33233 ft 511 kts 56°
2026-04-16 07:35 36.45759 -58.11322 33238 ft 511 kts 56°
2026-04-16 07:36 36.49458 -58.03820 33240 ft 512 kts 56°
2026-04-16 07:36 36.53177 -57.96260 33235 ft 513 kts 56°
2026-04-16 07:37 36.56900 -57.88674 33240 ft 514 kts 56°
2026-04-16 07:37 36.60626 -57.81067 33237 ft 515 kts 56°
2026-04-16 07:38 36.64351 -57.73441 33233 ft 515 kts 56°
2026-04-16 07:38 36.67985 -57.65986 33227 ft 517 kts 56°
2026-04-16 07:39 36.71691 -57.58368 33233 ft 517 kts 55°
2026-04-16 07:39 36.75416 -57.50693 33226 ft 518 kts 55°
2026-04-16 07:40 36.79140 -57.43000 33228 ft 518 kts 55°
2026-04-16 07:40 36.82866 -57.35288 33235 ft 519 kts 55°
2026-04-16 07:41 36.86586 -57.27569 33224 ft 519 kts 55°
2026-04-16 07:41 36.90084 -57.20295 33226 ft 519 kts 55°
2026-04-16 07:42 36.93801 -57.12548 33225 ft 520 kts 55°
2026-04-16 07:42 36.97492 -57.04838 33225 ft 520 kts 55°
2026-04-16 07:43 37.01200 -56.97071 33215 ft 520 kts 55°
2026-04-16 07:43 37.04913 -56.89279 33212 ft 521 kts 55°
2026-04-16 07:44 37.08623 -56.81475 33229 ft 521 kts 55°
2026-04-16 07:44 37.12330 -56.73658 33221 ft 522 kts 55°
2026-04-16 07:45 37.16031 -56.65833 33202 ft 522 kts 55°
2026-04-16 07:45 37.19712 -56.58036 33224 ft 523 kts 55°
2026-04-16 07:46 37.23253 -56.50514 33206 ft 523 kts 55°
2026-04-16 07:46 37.26947 -56.42648 33203 ft 522 kts 55°
2026-04-16 07:47 37.30633 -56.34784 33205 ft 523 kts 55°
2026-04-16 07:47 37.34318 -56.26902 33214 ft 523 kts 55°
2026-04-16 07:48 37.38000 -56.19008 33203 ft 522 kts 55°
2026-04-16 07:48 37.41626 -56.11215 33197 ft 523 kts 56°
2026-04-16 07:49 37.45266 -56.03374 33200 ft 523 kts 56°
2026-04-16 07:49 37.48934 -55.95453 33198 ft 524 kts 56°
2026-04-16 07:50 37.52600 -55.87518 33201 ft 524 kts 56°
2026-04-16 07:50 37.56264 -55.79567 33202 ft 525 kts 56°
2026-04-16 07:51 37.59856 -55.71752 33206 ft 524 kts 56°
2026-04-16 07:51 37.63483 -55.63843 33201 ft 524 kts 56°
2026-04-16 07:52 37.67128 -55.55875 33198 ft 524 kts 56°
2026-04-16 07:52 37.70761 -55.47914 33205 ft 523 kts 56°
2026-04-16 07:53 37.74388 -55.39947 33194 ft 522 kts 56°
2026-04-16 07:53 37.77947 -55.32108 33191 ft 522 kts 56°
2026-04-16 07:54 37.81556 -55.24143 33194 ft 521 kts 56°
2026-04-16 07:54 37.85151 -55.16188 33199 ft 521 kts 56°
2026-04-16 07:55 37.88745 -55.08214 33190 ft 521 kts 56°
2026-04-16 07:55 37.92302 -55.00305 33199 ft 520 kts 56°
2026-04-16 07:56 37.95882 -54.92325 33186 ft 520 kts 56°
2026-04-16 07:56 37.99458 -54.84331 33184 ft 520 kts 56°
2026-04-16 07:57 38.03004 -54.76388 33185 ft 520 kts 56°
2026-04-16 07:57 38.06563 -54.68395 33185 ft 521 kts 56°
2026-04-16 07:58 38.10121 -54.60383 33184 ft 521 kts 56°
2026-04-16 07:58 38.13649 -54.52420 33180 ft 521 kts 56°
2026-04-16 07:59 38.17131 -54.44542 33175 ft 521 kts 56°
2026-04-16 07:59 38.20674 -54.36504 33174 ft 522 kts 55°
2026-04-16 08:00 38.24216 -54.28451 33166 ft 522 kts 56°
2026-04-16 08:00 38.27737 -54.20418 33177 ft 522 kts 55°
2026-04-16 08:01 38.31238 -54.12420 33172 ft 523 kts 55°
2026-04-16 08:01 38.34726 -54.04430 33162 ft 523 kts 55°
2026-04-16 08:02 38.38255 -53.96322 33156 ft 523 kts 55°
2026-04-16 08:02 38.43521 -53.84184 33152 ft 524 kts 55°
2026-04-16 08:03 38.47042 -53.76045 33158 ft 524 kts 56°
2026-04-16 08:03 38.50562 -53.67885 33162 ft 525 kts 55°
2026-04-16 08:04 38.54040 -53.59802 33154 ft 525 kts 56°
2026-04-16 08:04 38.57544 -53.51637 33150 ft 525 kts 56°
2026-04-16 08:05 38.61047 -53.43454 33150 ft 525 kts 56°
2026-04-16 08:05 38.64550 -53.35249 33142 ft 525 kts 56°
2026-04-16 08:06 38.68040 -53.27055 33139 ft 524 kts 56°
2026-04-16 08:06 38.71506 -53.18893 33152 ft 524 kts 56°
2026-04-16 08:07 38.74991 -53.10668 33141 ft 524 kts 56°
2026-04-16 08:07 38.78410 -53.02576 33134 ft 524 kts 56°
2026-04-16 08:08 38.81875 -52.94354 33143 ft 524 kts 56°
2026-04-16 08:08 38.85334 -52.86124 33133 ft 524 kts 56°
2026-04-16 08:09 38.88763 -52.77944 33131 ft 524 kts 56°
2026-04-16 08:09 38.92208 -52.69706 33135 ft 523 kts 56°
2026-04-16 08:10 38.95645 -52.61464 33123 ft 523 kts 56°
2026-04-16 08:10 38.99085 -52.53192 33124 ft 523 kts 56°
2026-04-16 08:11 39.02511 -52.44932 33124 ft 524 kts 56°
2026-04-16 08:11 39.05936 -52.36654 33116 ft 524 kts 56°
2026-04-16 08:12 39.09337 -52.28411 33117 ft 524 kts 56°
2026-04-16 08:12 39.12722 -52.20183 33129 ft 525 kts 55°
2026-04-16 08:13 39.16104 -52.11942 33114 ft 526 kts 56°
2026-04-16 08:13 39.19511 -52.03619 33109 ft 526 kts 56°
2026-04-16 08:14 39.22350 -51.96663 33117 ft 527 kts 56°
2026-04-16 08:14 39.26311 -51.86934 33106 ft 527 kts 56°
2026-04-16 08:15 39.29714 -51.78552 33108 ft 527 kts 56°
2026-04-16 08:15 39.32549 -51.71550 33101 ft 528 kts 56°
2026-04-16 08:16 39.35948 -51.63136 33101 ft 529 kts 56°
2026-04-16 08:16 39.39349 -51.54691 33096 ft 529 kts 56°
2026-04-16 08:17 39.42746 -51.46235 33105 ft 530 kts 56°
2026-04-16 08:17 39.46120 -51.37812 33092 ft 530 kts 56°
2026-04-16 08:19 39.59620 -51.03870 33091 ft 530 kts 56°
2026-04-16 08:20 39.62982 -50.95357 33079 ft 530 kts 56°
2026-04-16 08:20 39.66338 -50.86838 33081 ft 530 kts 56°
2026-04-16 08:21 39.69690 -50.78304 33106 ft 530 kts 56°
2026-04-16 08:21 39.73031 -50.69775 33084 ft 530 kts 56°
2026-04-16 08:22 39.76348 -50.61280 33067 ft 530 kts 56°
2026-04-16 08:22 39.79680 -50.52725 33107 ft 530 kts 56°
2026-04-16 08:23 39.83009 -50.44151 33071 ft 531 kts 56°
2026-04-16 08:23 39.86332 -50.35570 33071 ft 531 kts 56°
2026-04-16 08:24 39.89653 -50.26967 33094 ft 531 kts 56°
2026-04-16 08:24 39.92969 -50.18353 33072 ft 532 kts 56°
2026-04-16 08:25 39.96279 -50.09729 33069 ft 532 kts 56°
2026-04-16 08:25 39.99590 -50.01079 33095 ft 533 kts 56°
2026-04-16 08:26 40.02801 -49.92404 33074 ft 535 kts 58°
2026-04-16 08:26 40.05926 -49.83570 33082 ft 535 kts 58°
2026-04-16 08:27 40.09034 -49.74740 33102 ft 535 kts 58°
2026-04-16 08:27 40.12154 -49.65917 33088 ft 535 kts 58°
2026-04-16 08:28 40.15279 -49.57094 33089 ft 535 kts 58°
2026-04-16 08:28 40.18396 -49.48273 33093 ft 535 kts 58°
2026-04-16 08:29 40.21512 -49.39423 33104 ft 536 kts 58°
2026-04-16 08:29 40.24625 -49.30548 33107 ft 536 kts 58°
2026-04-16 08:30 40.27714 -49.21714 33110 ft 537 kts 58°
2026-04-16 08:30 40.30819 -49.12806 33109 ft 538 kts 58°
2026-04-16 08:31 40.33926 -49.03866 33119 ft 538 kts 58°
2026-04-16 08:31 40.37024 -48.94923 33119 ft 538 kts 58°
2026-04-16 08:32 40.40118 -48.85965 33131 ft 539 kts 58°
2026-04-16 08:32 40.43189 -48.77043 33128 ft 539 kts 58°
2026-04-16 08:33 40.46267 -48.68070 33122 ft 539 kts 58°
2026-04-16 08:33 40.49344 -48.59076 33130 ft 539 kts 58°
2026-04-16 08:34 40.52407 -48.50094 33136 ft 539 kts 58°
2026-04-16 08:34 40.55467 -48.41091 33134 ft 539 kts 58°
2026-04-16 08:35 40.58519 -48.32085 33139 ft 539 kts 58°
2026-04-16 08:35 40.61570 -48.23050 33139 ft 539 kts 58°
2026-04-16 08:36 40.64592 -48.14073 33139 ft 540 kts 58°
2026-04-16 08:36 40.67630 -48.05020 33153 ft 540 kts 58°
2026-04-16 08:37 40.70663 -47.95954 33151 ft 541 kts 58°
2026-04-16 08:37 40.73691 -47.86871 33149 ft 541 kts 58°
2026-04-16 08:38 40.76718 -47.77760 33161 ft 542 kts 58°
2026-04-16 08:38 40.79735 -47.68651 33152 ft 542 kts 58°
2026-04-16 08:39 40.82747 -47.59527 33158 ft 542 kts 58°
2026-04-16 08:39 40.85750 -47.50400 33169 ft 541 kts 58°
2026-04-16 08:40 40.88727 -47.41323 33168 ft 541 kts 58°
2026-04-16 08:40 40.91710 -47.32195 33152 ft 541 kts 58°
2026-04-16 08:41 40.94688 -47.23057 33173 ft 541 kts 58°
2026-04-16 08:41 40.97662 -47.13901 33170 ft 542 kts 58°
2026-04-16 08:42 41.00636 -47.04713 33163 ft 543 kts 58°
2026-04-16 08:42 41.03612 -46.95485 33190 ft 544 kts 58°
2026-04-16 08:43 41.06585 -46.86238 33166 ft 546 kts 58°
2026-04-16 08:43 41.09531 -46.77041 33164 ft 547 kts 58°
2026-04-16 08:44 41.12501 -46.67739 33196 ft 547 kts 58°
2026-04-16 08:44 41.15462 -46.58432 33171 ft 548 kts 58°
2026-04-16 08:45 41.18419 -46.49105 33170 ft 548 kts 58°
2026-04-16 08:45 41.21367 -46.39772 33164 ft 548 kts 58°
2026-04-16 08:46 41.24308 -46.30432 33166 ft 548 kts 58°
2026-04-16 08:46 41.27243 -46.21080 33165 ft 548 kts 58°
2026-04-16 08:47 41.30168 -46.11725 33166 ft 547 kts 58°
2026-04-16 08:47 41.33089 -46.02356 33172 ft 548 kts 58°
2026-04-16 08:48 41.35985 -45.93033 33161 ft 548 kts 59°
2026-04-16 08:48 41.38892 -45.83636 33174 ft 549 kts 59°
2026-04-16 08:49 41.41793 -45.74232 33179 ft 549 kts 59°
2026-04-16 08:49 41.44694 -45.64792 33179 ft 550 kts 59°
2026-04-16 08:50 41.47587 -45.55340 33181 ft 550 kts 59°
2026-04-16 08:50 41.50480 -45.45859 33181 ft 550 kts 59°
2026-04-16 08:51 41.53338 -45.36455 33184 ft 551 kts 59°
2026-04-16 08:51 41.56210 -45.26975 33174 ft 550 kts 59°
2026-04-16 08:52 41.59069 -45.17498 33202 ft 550 kts 59°
2026-04-16 08:52 41.61925 -45.08007 33189 ft 551 kts 59°
2026-04-16 08:53 41.64774 -44.98502 33186 ft 551 kts 59°
2026-04-16 08:53 41.67615 -44.88986 33211 ft 551 kts 59°
2026-04-16 08:54 41.70458 -44.79430 33189 ft 553 kts 59°
2026-04-16 08:54 41.73296 -44.69855 33185 ft 553 kts 59°
2026-04-16 08:55 41.76131 -44.60254 33224 ft 554 kts 59°
2026-04-16 08:55 41.78935 -44.50720 33186 ft 554 kts 59°
2026-04-16 08:56 41.81747 -44.41124 33181 ft 553 kts 59°
2026-04-16 08:56 41.84551 -44.31521 33182 ft 552 kts 59°
2026-04-16 08:57 41.87345 -44.21919 33186 ft 552 kts 60°
2026-04-16 08:57 41.90119 -44.12341 33177 ft 550 kts 60°
2026-04-16 08:58 41.92878 -44.02785 33176 ft 548 kts 60°
2026-04-16 08:58 41.95622 -43.93248 33179 ft 547 kts 60°
2026-04-16 08:59 41.98353 -43.83720 33177 ft 545 kts 60°
2026-04-16 08:59 42.01072 -43.74198 33179 ft 544 kts 60°
2026-04-16 09:00 42.03762 -43.64747 33189 ft 545 kts 60°
2026-04-16 09:00 42.06464 -43.55219 33182 ft 545 kts 61°
2026-04-16 09:01 42.10498 -43.40917 33182 ft 545 kts 61°
2026-04-16 09:02 42.12733 -43.32962 33195 ft 546 kts 61°
2026-04-16 09:02 42.15412 -43.23390 33190 ft 546 kts 61°
2026-04-16 09:03 42.18084 -43.13803 33187 ft 546 kts 61°
2026-04-16 09:03 42.20750 -43.04204 33206 ft 546 kts 61°
2026-04-16 09:04 42.23410 -42.94593 33187 ft 546 kts 62°
2026-04-16 09:04 42.25966 -42.85316 33184 ft 546 kts 62°
2026-04-16 09:05 42.28585 -42.75775 33215 ft 546 kts 62°
2026-04-16 09:05 42.31220 -42.66142 33187 ft 547 kts 62°
2026-04-16 09:06 42.33852 -42.56479 33184 ft 547 kts 62°
2026-04-16 09:06 42.36473 -42.46818 33184 ft 547 kts 62°
2026-04-16 09:07 42.39086 -42.37152 33186 ft 547 kts 62°
2026-04-16 09:07 42.41694 -42.27467 33185 ft 547 kts 62°
2026-04-16 09:08 42.44279 -42.17827 33185 ft 548 kts 63°
2026-04-16 09:08 42.46870 -42.08129 33189 ft 548 kts 63°
2026-04-16 09:09 42.49459 -41.98402 33168 ft 548 kts 63°
2026-04-16 09:09 42.52046 -41.88637 33169 ft 549 kts 63°
2026-04-16 09:10 42.54615 -41.78901 33197 ft 549 kts 64°
2026-04-16 09:10 42.57161 -41.69214 33183 ft 549 kts 64°
2026-04-16 09:11 42.59718 -41.59447 33174 ft 549 kts 64°
2026-04-16 09:11 42.62267 -41.49671 33206 ft 549 kts 64°
2026-04-16 09:12 42.64806 -41.39894 33188 ft 549 kts 65°
2026-04-16 09:12 42.67342 -41.30087 33185 ft 549 kts 65°
2026-04-16 09:13 42.69865 -41.20290 33183 ft 549 kts 65°
2026-04-16 09:13 42.72386 -41.10464 33180 ft 550 kts 65°
2026-04-16 09:14 42.74893 -41.00644 33179 ft 549 kts 65°
2026-04-16 09:14 42.77391 -40.90822 33179 ft 549 kts 65°
2026-04-16 09:15 42.79883 -40.80986 33189 ft 549 kts 66°
2026-04-16 09:15 42.82347 -40.71215 33177 ft 549 kts 66°
2026-04-16 09:16 42.84821 -40.61368 33179 ft 549 kts 66°
2026-04-16 09:16 42.87285 -40.51516 33204 ft 549 kts 66°
2026-04-16 09:17 42.89741 -40.41656 33180 ft 549 kts 67°
2026-04-16 09:17 42.92184 -40.31803 33173 ft 548 kts 67°
2026-04-16 09:18 42.94622 -40.21930 33170 ft 548 kts 67°
2026-04-16 09:18 42.97049 -40.12062 33181 ft 548 kts 67°
2026-04-16 09:19 42.99471 -40.02199 33176 ft 547 kts 66°
2026-04-16 09:19 43.02462 -39.92785 33176 ft 541 kts 59°
2026-04-16 09:20 43.05834 -39.83590 33185 ft 541 kts 58°
2026-04-16 09:20 43.09203 -39.74365 33177 ft 541 kts 59°
2026-04-16 09:21 43.12523 -39.65120 33180 ft 541 kts 59°
2026-04-16 09:21 43.15813 -39.55865 33180 ft 540 kts 60°
2026-04-16 09:22 43.19100 -39.46580 33171 ft 540 kts 60°
2026-04-16 09:22 43.22373 -39.37314 33172 ft 539 kts 60°
2026-04-16 09:23 43.25632 -39.28064 33168 ft 539 kts 60°
2026-04-16 09:23 43.28871 -39.18842 33168 ft 539 kts 60°
2026-04-16 09:24 43.32117 -39.09565 33169 ft 539 kts 60°
2026-04-16 09:24 43.35357 -39.00275 33184 ft 539 kts 60°
2026-04-16 09:25 43.38592 -38.90970 33174 ft 540 kts 60°
2026-04-16 09:25 43.41823 -38.81641 33167 ft 540 kts 60°
2026-04-16 09:26 43.45043 -38.72313 33167 ft 540 kts 60°
2026-04-16 09:26 43.48259 -38.62964 33171 ft 540 kts 61°
2026-04-16 09:27 43.51443 -38.53676 33172 ft 539 kts 61°
2026-04-16 09:27 43.54641 -38.44317 33167 ft 539 kts 61°
2026-04-16 09:28 43.57828 -38.34958 33164 ft 538 kts 61°
2026-04-16 09:28 43.61002 -38.25605 33159 ft 538 kts 61°
2026-04-16 09:29 43.64162 -38.16259 33161 ft 537 kts 61°
2026-04-16 09:29 43.67299 -38.06952 33172 ft 537 kts 62°
2026-04-16 09:30 43.70448 -37.97574 33161 ft 537 kts 62°
2026-04-16 09:30 43.73585 -37.88198 33167 ft 537 kts 62°
2026-04-16 09:31 43.76698 -37.78867 33171 ft 537 kts 62°
2026-04-16 09:31 43.79820 -37.69470 33147 ft 537 kts 62°
2026-04-16 09:32 43.82932 -37.60072 33159 ft 536 kts 62°
2026-04-16 09:32 43.86036 -37.50667 33149 ft 536 kts 62°
2026-04-16 09:33 43.89135 -37.41242 33150 ft 537 kts 63°
2026-04-16 09:33 43.92205 -37.31876 33146 ft 537 kts 63°
2026-04-16 09:34 43.95287 -37.22434 33145 ft 537 kts 63°
2026-04-16 09:34 43.98360 -37.12989 33151 ft 537 kts 63°
2026-04-16 09:35 44.01436 -37.03502 33138 ft 537 kts 63°
2026-04-16 09:35 44.04495 -36.94033 33139 ft 537 kts 63°
2026-04-16 09:36 44.07531 -36.84600 33160 ft 538 kts 63°
2026-04-16 09:36 44.10580 -36.75091 33140 ft 538 kts 63°
2026-04-16 09:37 44.13620 -36.65576 33131 ft 538 kts 63°
2026-04-16 09:37 44.16659 -36.56034 33149 ft 539 kts 64°
2026-04-16 09:38 44.19691 -36.46479 33129 ft 540 kts 64°
2026-04-16 09:38 44.22719 -36.36896 33132 ft 540 kts 64°
2026-04-16 09:39 44.25743 -36.27295 33125 ft 540 kts 64°
2026-04-16 09:39 44.28739 -36.17745 33127 ft 540 kts 64°
2026-04-16 09:40 44.31750 -36.08111 33128 ft 540 kts 64°
2026-04-16 09:40 44.34730 -35.98544 33128 ft 540 kts 64°
2026-04-16 09:41 44.37716 -35.88922 33138 ft 540 kts 64°
2026-04-16 09:41 44.40697 -35.79276 33123 ft 540 kts 64°
2026-04-16 09:42 44.43670 -35.69625 33122 ft 540 kts 64°
2026-04-16 09:42 44.46633 -35.59967 33131 ft 540 kts 64°
2026-04-16 09:43 44.49591 -35.50291 33117 ft 540 kts 64°
2026-04-16 09:43 44.52526 -35.40652 33114 ft 541 kts 65°
2026-04-16 09:44 44.55469 -35.30952 33115 ft 541 kts 65°
2026-04-16 09:44 44.58408 -35.21226 33118 ft 542 kts 65°
2026-04-16 09:45 44.61347 -35.11464 33106 ft 542 kts 65°
2026-04-16 09:45 44.64272 -35.01712 33107 ft 542 kts 65°
2026-04-16 09:46 44.67190 -34.91944 33109 ft 542 kts 65°
2026-04-16 09:46 44.70080 -34.82233 33105 ft 542 kts 65°
2026-04-16 09:47 44.72985 -34.72433 33101 ft 543 kts 65°
2026-04-16 09:47 44.75883 -34.62621 33119 ft 543 kts 65°
2026-04-16 09:48 44.78777 -34.52782 33104 ft 544 kts 65°
2026-04-16 09:48 44.81666 -34.42920 33099 ft 544 kts 65°
2026-04-16 09:49 44.84531 -34.33105 33098 ft 544 kts 65°
2026-04-16 09:49 44.87405 -34.23216 33102 ft 545 kts 65°
2026-04-16 09:50 44.89789 -34.14985 33095 ft 545 kts 65°
2026-04-16 09:50 44.92648 -34.05079 33086 ft 545 kts 65°
2026-04-16 09:51 44.95500 -33.95157 33103 ft 545 kts 66°
2026-04-16 09:51 44.98341 -33.85231 33087 ft 545 kts 66°
2026-04-16 09:52 45.01180 -33.75276 33076 ft 545 kts 66°
2026-04-16 09:52 45.04005 -33.65327 33077 ft 545 kts 66°
2026-04-16 09:53 45.06827 -33.55350 33074 ft 546 kts 66°
2026-04-16 09:53 45.09622 -33.45427 33078 ft 546 kts 66°
2026-04-16 09:54 45.12429 -33.35420 33071 ft 546 kts 66°
2026-04-16 09:54 45.15232 -33.25389 33078 ft 547 kts 66°
2026-04-16 09:55 45.18029 -33.15335 33066 ft 548 kts 66°
2026-04-16 09:55 45.20814 -33.05285 33061 ft 548 kts 66°
2026-04-16 09:56 45.23577 -32.95273 33061 ft 548 kts 67°
2026-04-16 09:56 45.26348 -32.85189 33051 ft 548 kts 67°
2026-04-16 09:57 45.29109 -32.75100 33052 ft 548 kts 67°
2026-04-16 09:57 45.31861 -32.65002 33057 ft 548 kts 67°
2026-04-16 09:58 45.34605 -32.54887 33053 ft 548 kts 67°
2026-04-16 09:58 45.37330 -32.44805 33044 ft 549 kts 67°
2026-04-16 09:59 45.40060 -32.34656 33039 ft 549 kts 67°
2026-04-16 09:59 45.42778 -32.24513 33053 ft 549 kts 67°
2026-04-16 10:00 45.45495 -32.14330 33005 ft 550 kts 67°
2026-04-16 10:00 45.48205 -32.04127 33032 ft 552 kts 68°
2026-04-16 10:01 45.52279 -31.88710 33035 ft 556 kts 68°
2026-04-16 10:01 45.54976 -31.78445 33029 ft 556 kts 68°
2026-04-16 10:02 45.57681 -31.68106 33023 ft 555 kts 68°
2026-04-16 10:02 45.60371 -31.57775 33038 ft 554 kts 68°
2026-04-16 10:03 45.63051 -31.47443 33014 ft 553 kts 68°
2026-04-16 10:03 45.65713 -31.37132 33015 ft 552 kts 68°
2026-04-16 10:04 45.68341 -31.26907 33011 ft 551 kts 68°
2026-04-16 10:04 45.70975 -31.16611 33000 ft 551 kts 68°
2026-04-16 10:05 45.73605 -31.06291 32998 ft 552 kts 68°
2026-04-16 10:05 45.76224 -30.95962 32995 ft 552 kts 68°
2026-04-16 10:06 45.78842 -30.85594 33007 ft 553 kts 68°
2026-04-16 10:06 45.81450 -30.75216 32995 ft 553 kts 68°
2026-04-16 10:07 45.84035 -30.64882 32984 ft 553 kts 69°
2026-04-16 10:07 45.86629 -30.54469 33001 ft 553 kts 69°
2026-04-16 10:08 45.89209 -30.44062 32988 ft 554 kts 69°
2026-04-16 10:08 45.91780 -30.33642 32979 ft 554 kts 69°
2026-04-16 10:09 45.94346 -30.23197 32973 ft 554 kts 69°
2026-04-16 10:09 45.96898 -30.12758 32966 ft 554 kts 69°
2026-04-16 10:10 45.99438 -30.02365 32970 ft 554 kts 68°
2026-04-16 10:10 46.02633 -29.92315 32980 ft 551 kts 59°
2026-04-16 10:11 46.06226 -29.82566 32977 ft 552 kts 59°
2026-04-16 10:11 46.09812 -29.72797 32955 ft 552 kts 59°
2026-04-16 10:12 46.13351 -29.62983 32956 ft 552 kts 60°
2026-04-16 10:12 46.16866 -29.53133 32953 ft 551 kts 60°
2026-04-16 10:13 46.20366 -29.43280 32948 ft 551 kts 60°
2026-04-16 10:13 46.23837 -29.33485 32948 ft 551 kts 60°
2026-04-16 10:14 46.27320 -29.23626 32945 ft 551 kts 60°
2026-04-16 10:14 46.30799 -29.13744 32947 ft 551 kts 60°
2026-04-16 10:15 46.34276 -29.03831 32936 ft 551 kts 60°
2026-04-16 10:15 46.37742 -28.93911 32935 ft 551 kts 60°
2026-04-16 10:16 46.41201 -28.83972 32940 ft 552 kts 60°
2026-04-16 10:16 46.44632 -28.74077 32929 ft 552 kts 60°
2026-04-16 10:17 46.48081 -28.64092 32927 ft 552 kts 61°
2026-04-16 10:17 46.51514 -28.54118 32939 ft 552 kts 61°
2026-04-16 10:18 46.54935 -28.44138 32917 ft 551 kts 61°
2026-04-16 10:18 46.58334 -28.34184 32917 ft 550 kts 61°
2026-04-16 10:19 46.61705 -28.24278 32911 ft 549 kts 61°
2026-04-16 10:19 46.65083 -28.14314 32911 ft 549 kts 61°
2026-04-16 10:20 46.68455 -28.04327 32918 ft 549 kts 61°
2026-04-16 10:20 46.71824 -27.94313 32904 ft 550 kts 62°
2026-04-16 10:21 46.75179 -27.84301 32894 ft 550 kts 62°
2026-04-16 10:21 46.78529 -27.74265 32896 ft 550 kts 62°
2026-04-16 10:22 46.81877 -27.64193 32892 ft 551 kts 62°
2026-04-16 10:22 46.85210 -27.54131 32881 ft 551 kts 62°
2026-04-16 10:23 46.88517 -27.44110 32886 ft 551 kts 62°
2026-04-16 10:23 46.91835 -27.34011 32882 ft 551 kts 62°
2026-04-16 10:24 46.95142 -27.23911 32876 ft 550 kts 62°
2026-04-16 10:24 46.98442 -27.13790 32870 ft 550 kts 63°
2026-04-16 10:25 47.01735 -27.03652 32866 ft 550 kts 63°
2026-04-16 10:25 47.04995 -26.93576 32866 ft 550 kts 63°
2026-04-16 10:26 47.08269 -26.83415 32873 ft 550 kts 63°
2026-04-16 10:26 47.11535 -26.73239 32856 ft 550 kts 63°
2026-04-16 10:27 47.14790 -26.63058 32848 ft 551 kts 63°
2026-04-16 10:27 47.18038 -26.52858 32845 ft 551 kts 63°
2026-04-16 10:28 47.21255 -26.42714 32848 ft 551 kts 64°
2026-04-16 10:28 47.24487 -26.32483 32837 ft 551 kts 64°
2026-04-16 10:29 47.27710 -26.22238 32839 ft 551 kts 64°
2026-04-16 10:29 47.30920 -26.11992 32834 ft 551 kts 64°
2026-04-16 10:30 47.34127 -26.01714 32829 ft 551 kts 64°
2026-04-16 10:30 47.37317 -25.91450 32827 ft 551 kts 64°
2026-04-16 10:31 47.40502 -25.81158 32825 ft 551 kts 64°
2026-04-16 10:31 47.43678 -25.70857 32813 ft 551 kts 64°
2026-04-16 10:32 47.46822 -25.60615 32810 ft 551 kts 64°
2026-04-16 10:32 47.49973 -25.50305 32816 ft 550 kts 64°
2026-04-16 10:33 47.53120 -25.39971 32818 ft 551 kts 65°
2026-04-16 10:33 47.56259 -25.29617 32831 ft 551 kts 65°
2026-04-16 10:34 47.59388 -25.19254 32800 ft 550 kts 65°
2026-04-16 10:34 47.62500 -25.08901 32795 ft 548 kts 65°
2026-04-16 10:35 47.65589 -24.98587 32785 ft 547 kts 65°
2026-04-16 10:35 47.68649 -24.88323 32784 ft 546 kts 65°
2026-04-16 10:36 47.71719 -24.77982 32778 ft 547 kts 65°
2026-04-16 10:36 47.74778 -24.67640 32787 ft 547 kts 66°
2026-04-16 10:37 47.77831 -24.57271 32773 ft 548 kts 66°
2026-04-16 10:37 47.80368 -24.48619 32764 ft 548 kts 66°
2026-04-16 10:38 47.83899 -24.36527 32762 ft 548 kts 66°
2026-04-16 10:38 47.86423 -24.27849 32753 ft 548 kts 67°
2026-04-16 10:39 47.89441 -24.17429 32753 ft 548 kts 67°
2026-04-16 10:39 47.92456 -24.06975 32754 ft 548 kts 67°
2026-04-16 10:40 47.95460 -23.96519 32734 ft 548 kts 68°
2026-04-16 10:40 47.98452 -23.86054 32733 ft 548 kts 68°
2026-04-16 10:41 48.01432 -23.75584 32730 ft 548 kts 68°
2026-04-16 10:41 48.04407 -23.65088 32728 ft 548 kts 68°
2026-04-16 10:42 48.07371 -23.54591 32709 ft 548 kts 68°
2026-04-16 10:42 48.10309 -23.44131 32709 ft 548 kts 68°
2026-04-16 10:43 48.13264 -23.33568 32714 ft 549 kts 69°
2026-04-16 10:43 48.16206 -23.23005 32694 ft 550 kts 69°
2026-04-16 10:44 48.19145 -23.12408 32686 ft 550 kts 69°
2026-04-16 10:44 48.22072 -23.01805 32688 ft 550 kts 69°
2026-04-16 10:45 48.24982 -22.91215 32673 ft 549 kts 69°
2026-04-16 10:45 48.27869 -22.80666 32654 ft 549 kts 70°
2026-04-16 10:46 48.30757 -22.70063 32644 ft 549 kts 70°
2026-04-16 10:46 48.33639 -22.59430 32652 ft 549 kts 70°
2026-04-16 10:47 48.36513 -22.48784 32640 ft 549 kts 70°
2026-04-16 10:47 48.39378 -22.38119 32613 ft 550 kts 70°
2026-04-16 10:48 48.42214 -22.27515 32614 ft 550 kts 70°
2026-04-16 10:48 48.45059 -22.16832 32624 ft 550 kts 70°
2026-04-16 10:49 48.47896 -22.06128 32610 ft 549 kts 70°
2026-04-16 10:49 48.50720 -21.95423 32612 ft 549 kts 70°
2026-04-16 10:50 48.53529 -21.84724 32580 ft 548 kts 70°
2026-04-16 10:50 48.56329 -21.74011 32625 ft 548 kts 71°
2026-04-16 10:51 48.59114 -21.63304 32584 ft 547 kts 71°
2026-04-16 10:51 48.61862 -21.52692 32592 ft 545 kts 71°
2026-04-16 10:52 48.64615 -21.42010 32578 ft 545 kts 71°
2026-04-16 10:52 48.67358 -21.31318 32561 ft 544 kts 71°
2026-04-16 10:53 48.70089 -21.20621 32575 ft 544 kts 71°
2026-04-16 10:53 48.72806 -21.09928 32578 ft 544 kts 71°
2026-04-16 10:54 48.75510 -20.99238 32572 ft 544 kts 71°
2026-04-16 10:54 48.78191 -20.88586 32565 ft 544 kts 72°
2026-04-16 10:55 48.80878 -20.77860 32572 ft 544 kts 72°
2026-04-16 10:55 48.83555 -20.67124 32577 ft 544 kts 72°
2026-04-16 10:56 48.86228 -20.56352 32577 ft 544 kts 72°
2026-04-16 10:56 48.88885 -20.45590 32577 ft 544 kts 72°
2026-04-16 10:57 48.91517 -20.34881 32588 ft 544 kts 72°
2026-04-16 10:57 48.94157 -20.24087 32590 ft 544 kts 72°
2026-04-16 10:58 48.96784 -20.13296 32568 ft 543 kts 72°
2026-04-16 10:58 48.99139 -20.02393 32595 ft 539 kts 80°
2026-04-16 10:59 49.00283 -19.91167 32599 ft 533 kts 91°
2026-04-16 10:59 49.00485 -19.79963 32612 ft 532 kts 93°
2026-04-16 11:00 49.00639 -19.68681 32596 ft 532 kts 93°
2026-04-16 11:00 49.00820 -19.57396 32621 ft 532 kts 93°
2026-04-16 11:01 49.01016 -19.46130 32626 ft 532 kts 93°
2026-04-16 11:01 49.01208 -19.34840 32628 ft 532 kts 93°
2026-04-16 11:02 49.01385 -19.23567 32603 ft 532 kts 93°
2026-04-16 11:02 49.01548 -19.12388 32635 ft 532 kts 94°
2026-04-16 11:03 49.01700 -19.01101 32642 ft 533 kts 94°
2026-04-16 11:04 49.01910 -18.84128 32644 ft 534 kts 94°
2026-04-16 11:04 49.02036 -18.72819 32650 ft 533 kts 94°
2026-04-16 11:05 49.02150 -18.61589 32662 ft 533 kts 94°
2026-04-16 11:05 49.02254 -18.50276 32666 ft 533 kts 94°
2026-04-16 11:06 49.02346 -18.39000 32663 ft 535 kts 94°
2026-04-16 11:06 49.02428 -18.27690 32669 ft 533 kts 94°
2026-04-16 11:07 49.02500 -18.16371 32677 ft 532 kts 94°
2026-04-16 11:07 49.02559 -18.05097 32675 ft 532 kts 95°
2026-04-16 11:08 49.02608 -17.93814 32685 ft 532 kts 95°
2026-04-16 11:08 49.02645 -17.82562 32653 ft 531 kts 95°
2026-04-16 11:09 49.02671 -17.71298 32694 ft 532 kts 95°
2026-04-16 11:09 49.02686 -17.60085 32705 ft 533 kts 95°
2026-04-16 11:10 49.02691 -17.48774 32707 ft 534 kts 95°
2026-04-16 11:10 49.02685 -17.37460 32702 ft 534 kts 95°
2026-04-16 11:11 49.02668 -17.26138 32718 ft 534 kts 95°
2026-04-16 11:11 49.02639 -17.14817 32720 ft 534 kts 96°
2026-04-16 11:12 49.02600 -17.03579 32727 ft 533 kts 96°
2026-04-16 11:12 49.02549 -16.92274 32726 ft 533 kts 96°
2026-04-16 11:13 49.02482 -16.80913 32728 ft 538 kts 96°
2026-04-16 11:13 49.02412 -16.69512 32740 ft 536 kts 96°
2026-04-16 11:14 49.02333 -16.58190 32759 ft 534 kts 96°
2026-04-16 11:14 49.02238 -16.46943 32745 ft 533 kts 96°
2026-04-16 11:15 49.02131 -16.35634 32733 ft 535 kts 97°
2026-04-16 11:15 49.02011 -16.24294 32750 ft 535 kts 97°
2026-04-16 11:16 49.01884 -16.12958 32775 ft 534 kts 97°
2026-04-16 11:16 49.01745 -16.01634 32764 ft 534 kts 97°
2026-04-16 11:17 49.01595 -15.90339 32795 ft 534 kts 97°
2026-04-16 11:17 49.01434 -15.79067 32801 ft 535 kts 97°
2026-04-16 11:18 49.01261 -15.67737 32807 ft 535 kts 97°
2026-04-16 11:18 49.01077 -15.56366 32771 ft 536 kts 97°
2026-04-16 11:19 49.00883 -15.45030 32822 ft 536 kts 98°
2026-04-16 11:19 49.00678 -15.33752 32840 ft 536 kts 98°
2026-04-16 11:20 49.00460 -15.22379 32829 ft 536 kts 98°
2026-04-16 11:20 49.00231 -15.11006 32823 ft 537 kts 98°
2026-04-16 11:21 48.99994 -14.99647 32837 ft 537 kts 98°
2026-04-16 11:21 48.99963 -14.88232 32826 ft 540 kts 95°
2026-04-16 11:22 49.00120 -14.76800 32854 ft 541 kts 95°
2026-04-16 11:22 49.00245 -14.65405 32828 ft 541 kts 96°
2026-04-16 11:23 49.00314 -14.53945 32873 ft 542 kts 96°
2026-04-16 11:23 49.00356 -14.42449 32873 ft 543 kts 96°
2026-04-16 11:24 49.00388 -14.30927 32878 ft 543 kts 96°
2026-04-16 11:24 49.00413 -14.19476 32841 ft 543 kts 96°
2026-04-16 11:25 49.00428 -14.07969 32892 ft 543 kts 96°
2026-04-16 11:25 49.00430 -13.96467 32899 ft 543 kts 96°
2026-04-16 11:26 49.00420 -13.84950 32900 ft 543 kts 96°
2026-04-16 11:26 49.00404 -13.75368 32902 ft 543 kts 96°
2026-04-16 11:27 49.00374 -13.63853 32917 ft 543 kts 97°
2026-04-16 11:27 49.00333 -13.52341 32914 ft 543 kts 97°
2026-04-16 11:28 49.00280 -13.40842 32927 ft 543 kts 97°
2026-04-16 11:28 49.00215 -13.29328 32895 ft 543 kts 97°
2026-04-16 11:29 49.00141 -13.17847 32926 ft 543 kts 97°
2026-04-16 11:29 49.00145 -13.06320 32907 ft 548 kts 92°
2026-04-16 11:30 49.01250 -12.94820 32938 ft 557 kts 82°
2026-04-16 11:30 49.03550 -12.83456 32938 ft 563 kts 75°
2026-04-16 11:31 49.06166 -12.72161 32955 ft 564 kts 75°
2026-04-16 11:31 49.08748 -12.60853 32954 ft 565 kts 75°
2026-04-16 11:32 49.11274 -12.49499 32968 ft 565 kts 75°
2026-04-16 11:32 49.13771 -12.38119 32950 ft 564 kts 75°
2026-04-16 11:33 49.16234 -12.26833 32963 ft 564 kts 76°
2026-04-16 11:33 49.18706 -12.15471 32964 ft 563 kts 76°
2026-04-16 11:34 49.21167 -12.04105 32940 ft 563 kts 76°
2026-04-16 11:34 49.23620 -11.92712 32969 ft 563 kts 76°
2026-04-16 11:35 49.26057 -11.81333 32980 ft 563 kts 76°
2026-04-16 11:35 49.28485 -11.69925 32982 ft 563 kts 76°
2026-04-16 11:36 49.30899 -11.58518 32974 ft 563 kts 76°
2026-04-16 11:36 49.33306 -11.47084 32984 ft 563 kts 76°
2026-04-16 11:37 49.35704 -11.35631 32993 ft 564 kts 76°
2026-04-16 11:37 49.38076 -11.24233 32998 ft 564 kts 76°
2026-04-16 11:38 49.40438 -11.12815 32995 ft 564 kts 76°
2026-04-16 11:38 49.42803 -11.01324 33006 ft 564 kts 76°
2026-04-16 11:39 49.45159 -10.89805 33010 ft 564 kts 76°
2026-04-16 11:39 49.47503 -10.78280 32987 ft 565 kts 76°
2026-04-16 11:40 49.49821 -10.66816 33005 ft 565 kts 76°
2026-04-16 11:40 49.52145 -10.55252 33018 ft 565 kts 76°
2026-04-16 11:41 49.54458 -10.43679 33033 ft 565 kts 76°
2026-04-16 11:41 49.56742 -10.32178 33008 ft 565 kts 76°
2026-04-16 11:42 49.59029 -10.20596 33035 ft 565 kts 76°
2026-04-16 11:42 49.61306 -10.08996 33037 ft 565 kts 76°
2026-04-16 11:43 49.63570 -9.97389 33029 ft 565 kts 76°
2026-04-16 11:43 49.65804 -9.85866 33032 ft 565 kts 76°
2026-04-16 11:44 49.68047 -9.74228 33047 ft 566 kts 76°
2026-04-16 11:44 49.70279 -9.62580 33047 ft 566 kts 77°
2026-04-16 11:45 49.72487 -9.50983 33050 ft 566 kts 77°
2026-04-16 11:45 49.74696 -9.39308 33055 ft 566 kts 77°
2026-04-16 11:46 49.76898 -9.27597 33058 ft 565 kts 77°
2026-04-16 11:46 49.79083 -9.15902 33051 ft 565 kts 77°
2026-04-16 11:47 49.81255 -9.04204 33042 ft 564 kts 77°
2026-04-16 11:47 49.83412 -8.92513 33065 ft 564 kts 77°
2026-04-16 11:48 49.85541 -8.80901 33074 ft 564 kts 77°
2026-04-16 11:48 49.87677 -8.69178 33076 ft 565 kts 77°
2026-04-16 11:49 49.89802 -8.57431 33064 ft 565 kts 77°
2026-04-16 11:49 49.91914 -8.45688 33075 ft 566 kts 77°
2026-04-16 11:50 49.94022 -8.33893 33072 ft 566 kts 77°
2026-04-16 11:50 49.96114 -8.22104 33078 ft 566 kts 77°
2026-04-16 11:51 49.98181 -8.10384 33085 ft 565 kts 77°
2026-04-16 11:51 50.00246 -7.98594 33080 ft 564 kts 78°
2026-04-16 11:52 50.02071 -7.86748 33088 ft 563 kts 80°
2026-04-16 11:52 50.03707 -7.75028 33081 ft 562 kts 80°
2026-04-16 11:53 50.05374 -7.63134 33092 ft 562 kts 80°
2026-04-16 11:53 50.07069 -7.51251 33097 ft 562 kts 80°
2026-04-16 11:54 50.08769 -7.39357 33100 ft 562 kts 80°
2026-04-16 11:54 50.10440 -7.27556 33092 ft 562 kts 80°
2026-04-16 11:55 50.12110 -7.15647 33098 ft 562 kts 80°
2026-04-16 11:55 50.13767 -7.03726 33111 ft 562 kts 80°
2026-04-16 11:56 50.15413 -6.91789 33114 ft 563 kts 80°
2026-04-16 11:56 50.17045 -6.79849 33110 ft 563 kts 80°
2026-04-16 11:57 50.18659 -6.67957 33119 ft 563 kts 80°
2026-04-16 11:57 50.20271 -6.55975 33124 ft 563 kts 80°
2026-04-16 11:58 50.21870 -6.43991 33123 ft 563 kts 81°
2026-04-16 11:58 50.23456 -6.32003 33127 ft 563 kts 80°
2026-04-16 11:59 50.25030 -6.20006 33133 ft 563 kts 81°
2026-04-16 11:59 50.26593 -6.07989 33138 ft 564 kts 81°
2026-04-16 12:00 50.28143 -5.95965 33117 ft 565 kts 80°
2026-04-16 12:00 50.29674 -5.83987 33137 ft 565 kts 81°
2026-04-16 12:01 50.31204 -5.71920 33139 ft 566 kts 81°
2026-04-16 12:01 50.32723 -5.59826 33140 ft 566 kts 81°
2026-04-16 12:02 50.34976 -5.41688 33136 ft 566 kts 81°
2026-04-16 12:02 50.36463 -5.29584 33142 ft 566 kts 81°
2026-04-16 12:03 50.37937 -5.17472 33130 ft 566 kts 81°
2026-04-16 12:03 50.39397 -5.05364 33128 ft 565 kts 81°
2026-04-16 12:04 50.40845 -4.93242 33137 ft 565 kts 81°
2026-04-16 12:04 50.42272 -4.81190 33130 ft 565 kts 81°
2026-04-16 12:05 50.43695 -4.69050 33135 ft 565 kts 81°
2026-04-16 12:05 50.45105 -4.56915 33139 ft 565 kts 81°
2026-04-16 12:06 50.46501 -4.44778 33159 ft 564 kts 81°
2026-04-16 12:06 50.47883 -4.32650 33162 ft 565 kts 81°
2026-04-16 12:07 50.49253 -4.20509 33160 ft 565 kts 81°
2026-04-16 12:07 50.50612 -4.08353 33157 ft 564 kts 81°
2026-04-16 12:08 50.51957 -3.96200 33161 ft 564 kts 81°
2026-04-16 12:08 50.53294 -3.84105 33155 ft 564 kts 81°
2026-04-16 12:09 50.54635 -3.71946 33159 ft 564 kts 81°
2026-04-16 12:09 50.55960 -3.59776 33154 ft 564 kts 81°
2026-04-16 12:10 50.57273 -3.47600 33166 ft 564 kts 81°
2026-04-16 12:10 50.58641 -3.35517 33165 ft 564 kts 80°
2026-04-16 12:11 50.60065 -3.23578 33133 ft 541 kts 80°
2026-04-16 12:11 50.61407 -3.12071 33178 ft 534 kts 80°
2026-04-16 12:12 50.62506 -3.02469 33171 ft 536 kts 80°
2026-04-16 12:12 50.63822 -2.90876 33179 ft 538 kts 80°
2026-04-16 12:13 50.65127 -2.79270 33165 ft 538 kts 80°
2026-04-16 12:13 50.66420 -2.67660 33162 ft 536 kts 80°
2026-04-16 12:14 50.67699 -2.56089 33174 ft 535 kts 80°
2026-04-16 12:14 50.68253 -2.44462 33183 ft 530 kts 96°
2026-04-16 12:15 50.67545 -2.32972 33177 ft 529 kts 98°
2026-04-16 12:15 50.66904 -2.21399 33188 ft 530 kts 96°
2026-04-16 12:16 50.66409 -2.09796 33063 ft 528 kts 95°
2026-04-16 12:16 50.66163 -2.04107 32408 ft 513 kts 96°
2026-04-16 12:16 50.65989 -1.98546 31378 ft 504 kts 92°
2026-04-16 12:17 50.66023 -1.93054 30245 ft 498 kts 89°
2026-04-16 12:17 50.66152 -1.87626 28945 ft 492 kts 88°
2026-04-16 12:17 50.66285 -1.82268 27767 ft 484 kts 88°
2026-04-16 12:17 50.66386 -1.77014 26749 ft 473 kts 89°
2026-04-16 12:18 50.66454 -1.71945 25795 ft 463 kts 90°
2026-04-16 12:18 50.66504 -1.66911 24845 ft 453 kts 90°
2026-04-16 12:18 50.66548 -1.62000 23914 ft 444 kts 90°
2026-04-16 12:18 50.66606 -1.57162 22837 ft 436 kts 87°
2026-04-16 12:19 50.67180 -1.52435 21967 ft 442 kts 67°
2026-04-16 12:19 50.68540 -1.48160 21516 ft 432 kts 60°
2026-04-16 12:19 50.69928 -1.43988 21200 ft 426 kts 62°
2026-04-16 12:19 50.71244 -1.39840 20834 ft 421 kts 62°
2026-04-16 12:20 50.72532 -1.35679 20191 ft 424 kts 63°
2026-04-16 12:20 50.73832 -1.31454 19329 ft 432 kts 63°
2026-04-16 12:20 50.75152 -1.27163 18639 ft 434 kts 62°
2026-04-16 12:20 50.76807 -1.23208 17835 ft 432 kts 44°
2026-04-16 12:21 50.79146 -1.20317 17090 ft 423 kts 29°
2026-04-16 12:21 50.81619 -1.17931 16647 ft 419 kts 29°
2026-04-16 12:21 50.84063 -1.15487 16218 ft 413 kts 30°
2026-04-16 12:21 50.86476 -1.13021 15771 ft 409 kts 30°
2026-04-16 12:22 50.88844 -1.10576 15350 ft 405 kts 31°
2026-04-16 12:22 50.91191 -1.08145 14927 ft 401 kts 31°
2026-04-16 12:22 50.93523 -1.05725 14495 ft 398 kts 31°
2026-04-16 12:22 50.95827 -1.03335 14064 ft 394 kts 31°
2026-04-16 12:23 50.98115 -1.00959 13598 ft 391 kts 31°
2026-04-16 12:23 51.00371 -0.98581 13139 ft 385 kts 34°
2026-04-16 12:23 51.02309 -0.95771 12784 ft 380 kts 46°
2026-04-16 12:23 51.04017 -0.92609 12441 ft 374 kts 48°
2026-04-16 12:24 51.05687 -0.89476 12108 ft 369 kts 48°
2026-04-16 12:24 51.07355 -0.86396 11766 ft 364 kts 47°
2026-04-16 12:24 51.09016 -0.83378 11429 ft 360 kts 47°
2026-04-16 12:24 51.10668 -0.80405 11101 ft 356 kts 47°
2026-04-16 12:25 51.12306 -0.77474 10791 ft 352 kts 46°
2026-04-16 12:25 51.13904 -0.74615 10470 ft 348 kts 46°
2026-04-16 12:25 51.15506 -0.71746 10146 ft 344 kts 47°
2026-04-16 12:25 51.17077 -0.68930 9978 ft 335 kts 47°
2026-04-16 12:26 51.18609 -0.66179 9813 ft 326 kts 47°
2026-04-16 12:26 51.20089 -0.63517 9754 ft 315 kts 47°
2026-04-16 12:26 51.21519 -0.60943 9602 ft 307 kts 47°
2026-04-16 12:26 51.22917 -0.58426 9448 ft 298 kts 47°
2026-04-16 12:27 51.24283 -0.55965 9193 ft 294 kts 47°
2026-04-16 12:27 51.25619 -0.53558 8890 ft 291 kts 47°
2026-04-16 12:27 51.26957 -0.51142 8594 ft 289 kts 47°
2026-04-16 12:27 51.28282 -0.48746 8271 ft 287 kts 47°
2026-04-16 12:28 51.29586 -0.46385 8116 ft 278 kts 47°
2026-04-16 12:28 51.30695 -0.43951 7894 ft 267 kts 66°
2026-04-16 12:28 51.31186 -0.41130 7580 ft 263 kts 78°
2026-04-16 12:28 51.31609 -0.38291 7274 ft 260 kts 76°
2026-04-16 12:29 51.32050 -0.35553 7190 ft 250 kts 76°
2026-04-16 12:29 51.32494 -0.32852 7188 ft 254 kts 75°
2026-04-16 12:29 51.32955 -0.30065 7175 ft 262 kts 75°
2026-04-16 12:29 51.33423 -0.27236 7181 ft 265 kts 75°
2026-04-16 12:30 51.33899 -0.24375 6976 ft 269 kts 76°
2026-04-16 12:30 51.34376 -0.21504 6659 ft 269 kts 76°
2026-04-16 12:30 51.34855 -0.18621 6355 ft 266 kts 76°
2026-04-16 12:30 51.35329 -0.15759 6040 ft 265 kts 76°
2026-04-16 12:31 51.35830 -0.12946 5692 ft 261 kts 68°
2026-04-16 12:31 51.36897 -0.10696 5388 ft 252 kts 33°
2026-04-16 12:31 51.38478 -0.09658 5101 ft 243 kts
2026-04-16 12:31 51.40133 -0.09487 4709 ft 237 kts 355°
2026-04-16 12:32 51.41760 -0.09571 4386 ft 227 kts 354°
2026-04-16 12:32 51.43283 -0.09643 4065 ft 211 kts 354°
2026-04-16 12:32 51.44696 -0.09829 3820 ft 201 kts 338°
2026-04-16 12:32 51.45807 -0.11012 3619 ft 189 kts 307°
2026-04-16 12:33 51.46674 -0.12627 3427 ft 191 kts 297°
2026-04-16 12:33 51.46933 -0.14610 3192 ft 180 kts 262°
2026-04-16 12:33 51.46815 -0.16625 3009 ft 183 kts 264°
2026-04-16 12:33 51.46734 -0.18639 2870 ft 180 kts 264°
2026-04-16 12:34 51.46635 -0.20649 2695 ft 180 kts 262°
2026-04-16 12:34 51.46573 -0.22638 2579 ft 177 kts 265°
2026-04-16 12:34 51.46554 -0.24616 2407 ft 179 kts 266°
2026-04-16 12:34 51.46545 -0.26635 2182 ft 183 kts 265°
2026-04-16 12:35 51.46539 -0.28664 1916 ft 179 kts 266°
2026-04-16 12:35 51.46533 -0.30579 1667 ft 164 kts 267°
2026-04-16 12:35 51.46530 -0.32306 1454 ft 147 kts 265°
2026-04-16 12:35 51.46526 -0.33868 1301 ft 137 kts 264°
2026-04-16 12:36 51.46516 -0.35483 1108 ft 147 kts 265°
2026-04-16 12:36 51.46513 -0.37102 889 ft 143 kts 266°
2026-04-16 12:36 51.46511 -0.38662 702 ft 138 kts 266°
2026-04-16 12:36 51.46499 -0.40239 507 ft 140 kts 266°
2026-04-16 12:37 51.46498 -0.41737 316 ft 132 kts 269°
2026-04-16 12:37 51.46499 -0.43168 157 ft 126 kts 266°
2026-04-16 12:37 51.46491 -0.44533 93 ft 114 kts 270°
2026-04-16 12:37 51.46488 -0.45651 90 ft 81 kts 270°
2026-04-16 12:38 51.46485 -0.46238 96 ft 36 kts 269°
2026-04-16 12:38 51.46509 -0.46591 96 ft 27 kts 286°
2026-04-16 12:38 51.46561 -0.46795 97 ft 15 kts 298°
2026-04-16 12:38 51.46654 -0.46858 92 ft 15 kts 356°
2026-04-16 12:39 51.46741 -0.46921 96 ft 15 kts 291°
2026-04-16 12:39 51.46746 -0.47086 94 ft 15 kts 268°
2026-04-16 12:39 51.46743 -0.47253 92 ft 15 kts 267°
2026-04-16 12:39 51.46746 -0.47420 94 ft 15 kts 271°
2026-04-16 12:40 51.46745 -0.47602 94 ft 21 kts 269°
2026-04-16 12:40 51.46754 -0.47827 96 ft 18 kts 303°
2026-04-16 12:40 51.46875 -0.47867 91 ft 15 kts 356°
2026-04-16 12:40 51.46914 -0.48002 93 ft 8 kts 270°
2026-04-16 12:41 51.46914 -0.48024 92 ft 0 kts 269°